| time (UTC) | temp F | wind direction | speed MPH | gust MPH | rain 1hr in | rain 24hr in | rain mn in | humidity % | barometer mb |
| 20260507190034 | 65 | 312 | 13.0 | 24.0 | 0.00 | 0.01 | 0.00 | 46 | 1018.8 |
| 20260507184541 | 65 | 312 | 13.0 | 24.0 | 0.00 | 0.01 | 0.00 | 47 | 1019.0 |
| 20260507184534 | 64 | 315 | 12.0 | 20.0 | 0.00 | 0.01 | 0.00 | 48 | 1019.4 |
| 20260507181532 | 64 | 312 | 11.0 | 19.0 | 0.00 | 0.01 | 0.00 | 48 | 1019.6 |
| 20260507180034 | 63 | 316 | 9.0 | 16.0 | 0.00 | 0.01 | 0.00 | 50 | 1019.7 |
| 20260507173107 | 63 | 312 | 10.0 | 18.0 | 0.00 | 0.01 | 0.00 | 52 | 1020.1 |
| 20260507171605 | 63 | 318 | 9.0 | 16.0 | 0.00 | 0.01 | 0.00 | 53 | 1020.3 |
| 20260507170033 | 63 | 325 | 8.0 | 14.0 | 0.00 | 0.01 | 0.00 | 54 | 1020.4 |
| 20260507164534 | 62 | 327 | 7.0 | 14.0 | 0.00 | 0.01 | 0.00 | 56 | 1020.4 |
| 20260507163032 | 61 | 312 | 8.0 | 13.0 | 0.00 | 0.01 | 0.00 | 58 | 1020.4 |
| 20260507161539 | 60 | 294 | 7.0 | 14.0 | 0.00 | 0.01 | 0.00 | 61 | 1020.5 |
| 20260507154606 | 59 | 291 | 8.0 | 14.0 | 0.00 | 0.01 | 0.00 | 67 | 1020.8 |
| 20260507151536 | 57 | 318 | 3.0 | 7.0 | 0.00 | 0.01 | 0.00 | 71 | 1020.9 |
| 20260507150144 | 56 | 293 | 4.0 | 7.0 | 0.00 | 0.01 | 0.00 | 72 | 1021.0 |
| 20260507144534 | 55 | 297 | 4.0 | 10.0 | 0.00 | 0.01 | 0.00 | 74 | 1020.9 |
| 20260507143031 | 55 | 314 | 4.0 | 10.0 | 0.00 | 0.01 | 0.00 | 74 | 1020.8 |
| 20260507141535 | 54 | 350 | 2.0 | 5.0 | 0.00 | 0.01 | 0.00 | 76 | 1020.9 |
| 20260507140034 | 53 | 286 | 1.0 | 5.0 | 0.00 | 0.01 | 0.00 | 77 | 1020.7 |
| 20260507134535 | 53 | 113 | 3.0 | 9.0 | 0.00 | 0.01 | 0.00 | 75 | 1020.5 |
| 20260507131536 | 54 | 301 | 10.0 | 17.0 | 0.00 | 0.01 | 0.00 | 73 | 1020.0 |
| 20260507130117 | 54 | 292 | 11.0 | 18.0 | 0.00 | 0.01 | 0.00 | 73 | 1019.9 |
| 20260507124530 | 54 | 294 | 12.0 | 19.0 | 0.00 | 0.01 | 0.00 | 73 | 1019.9 |
| 20260507123108 | 55 | 298 | 13.0 | 20.0 | 0.00 | 0.01 | 0.00 | 73 | 1019.9 |
| 20260507120035 | 55 | 295 | 11.0 | 20.0 | 0.00 | 0.01 | 0.00 | 74 | 1019.8 |
| 20260507114539 | 55 | 298 | 9.0 | 18.0 | 0.00 | 0.01 | 0.00 | 74 | 1019.8 |
| 20260507113034 | 55 | 297 | 9.0 | 19.0 | 0.00 | 0.01 | 0.00 | 74 | 1019.7 |
| 20260507111531 | 55 | 300 | 9.0 | 14.0 | 0.00 | 0.01 | 0.00 | 74 | 1019.5 |
| 20260507110036 | 56 | 304 | 7.0 | 14.0 | 0.00 | 0.01 | 0.00 | 73 | 1019.4 |
| 20260507104607 | 56 | 291 | 9.0 | 17.0 | 0.00 | 0.01 | 0.00 | 73 | 1019.1 |
| 20260507103037 | 56 | 290 | 11.0 | 18.0 | 0.00 | 0.01 | 0.00 | 72 | 1019.0 |
| 20260507101536 | 57 | 290 | 12.0 | 20.0 | 0.00 | 0.01 | 0.00 | 71 | 1019.0 |
| 20260507100044 | 57 | 285 | 12.0 | 21.0 | 0.00 | 0.01 | 0.00 | 70 | 1019.1 |
| 20260507094536 | 58 | 281 | 11.0 | 16.0 | 0.00 | 0.01 | 0.00 | 70 | 1019.3 |
| 20260507093038 | 58 | 285 | 10.0 | 18.0 | 0.00 | 0.01 | 0.00 | 70 | 1019.4 |
| 20260507091535 | 58 | 286 | 10.0 | 17.0 | 0.00 | 0.01 | 0.00 | 70 | 1019.6 |
| 20260507083038 | 58 | 340 | 7.0 | 12.0 | 0.00 | 0.01 | 0.00 | 71 | 1019.5 |
| 20260507081536 | 59 | 342 | 6.0 | 11.0 | 0.00 | 0.01 | 0.00 | 71 | 1019.6 |
| 20260507080030 | 59 | 339 | 7.0 | 11.0 | 0.00 | 0.01 | 0.00 | 71 | 1019.6 |
| 20260507074533 | 59 | 323 | 8.0 | 14.0 | 0.00 | 0.01 | 0.00 | 70 | 1019.6 |
| 20260507071537 | 60 | 301 | 10.0 | 17.0 | 0.00 | 0.01 | 0.00 | 70 | 1019.5 |
| 20260507070035 | 60 | 295 | 10.0 | 18.0 | 0.00 | 0.01 | 0.00 | 70 | 1019.5 |
| 20260507064537 | 60 | 307 | 8.0 | 14.0 | 0.00 | 0.01 | 0.01 | 70 | 1019.5 |
| 20260507063142 | 60 | 304 | 8.0 | 14.0 | 0.00 | 0.01 | 0.01 | 69 | 1019.6 |
| 20260507060106 | 61 | 302 | 8.0 | 16.0 | 0.00 | 0.01 | 0.01 | 69 | 1019.8 |
| 20260507054606 | 61 | 295 | 8.0 | 14.0 | 0.00 | 0.01 | 0.01 | 68 | 1019.9 |
| 20260507053036 | 62 | 290 | 8.0 | 17.0 | 0.00 | 0.01 | 0.01 | 66 | 1019.9 |
| 20260507050106 | 62 | 282 | 6.0 | 11.0 | 0.00 | 0.01 | 0.01 | 64 | 1019.9 |
| 20260507044533 | 62 | 265 | 4.0 | 8.0 | 0.00 | 0.01 | 0.01 | 62 | 1019.8 |
| 20260507043143 | 63 | 280 | 5.0 | 9.0 | 0.00 | 0.01 | 0.01 | 58 | 1019.8 |
| 20260507041535 | 65 | 296 | 5.0 | 10.0 | 0.00 | 0.01 | 0.01 | 51 | 1019.6 |
| 20260507040045 | 66 | 263 | 6.0 | 14.0 | 0.00 | 0.01 | 0.01 | 50 | 1019.4 |
| 20260507034537 | 67 | 254 | 7.0 | 14.0 | 0.00 | 0.01 | 0.01 | 49 | 1019.3 |
| 20260507031536 | 68 | 269 | 6.0 | 12.0 | 0.00 | 0.01 | 0.01 | 47 | 1019.1 |
| 20260507030031 | 69 | 277 | 7.0 | 12.0 | 0.00 | 0.01 | 0.01 | 47 | 1019.1 |
| 20260507024528 | 67 | 308 | 6.0 | 11.0 | 0.00 | 0.01 | 0.01 | 51 | 1019.1 |
| 20260507023033 | 66 | 333 | 3.0 | 7.0 | 0.00 | 0.01 | 0.01 | 53 | 1019.1 |
| 20260507021535 | 67 | 355 | 4.0 | 8.0 | 0.00 | 0.01 | 0.01 | 51 | 1019.0 |
| 20260507020044 | 67 | 340 | 5.0 | 11.0 | 0.00 | 0.01 | 0.01 | 52 | 1018.9 |
| 20260507013108 | 68 | 336 | 7.0 | 14.0 | 0.00 | 0.01 | 0.01 | 49 | 1018.7 |
| 20260507011642 | 69 | 320 | 8.0 | 15.0 | 0.00 | 0.01 | 0.01 | 48 | 1018.7 |
| 20260507010032 | 69 | 310 | 11.0 | 21.0 | 0.00 | 0.01 | 0.01 | 47 | 1018.7 |
| 20260507004535 | 70 | 298 | 10.0 | 19.0 | 0.00 | 0.01 | 0.01 | 45 | 1018.6 |
| 20260507003037 | 70 | 292 | 11.0 | 25.0 | 0.00 | 0.01 | 0.01 | 45 | 1018.3 |
| 20260507001536 | 71 | 287 | 11.0 | 20.0 | 0.00 | 0.01 | 0.01 | 44 | 1018.2 |
| 20260507000033 | 71 | 288 | 11.0 | 19.0 | 0.00 | 0.01 | 0.01 | 42 | 1018.1 |
| 20260506234536 | 72 | 285 | 13.0 | 24.0 | 0.00 | 0.01 | 0.01 | 40 | 1018.0 |
| 20260506233034 | 74 | 291 | 15.0 | 27.0 | 0.00 | 0.01 | 0.01 | 40 | 1017.8 |
| 20260506230037 | 73 | 288 | 11.0 | 20.0 | 0.00 | 0.01 | 0.01 | 41 | 1017.8 |
| 20260506224607 | 76 | 297 | 11.0 | 23.0 | 0.00 | 0.01 | 0.01 | 40 | 1018.2 |
| 20260506223032 | 75 | 283 | 9.0 | 18.0 | 0.00 | 0.01 | 0.01 | 42 | 1018.5 |
| 20260506220038 | 73 | 293 | 13.0 | 23.0 | 0.00 | 0.01 | 0.01 | 42 | 1018.5 |
| 20260506214543 | 75 | 288 | 16.0 | 24.0 | 0.01 | 0.01 | 0.01 | 42 | 1018.0 |
| 20260506213035 | 76 | 281 | 17.0 | 29.0 | 0.01 | 0.01 | 0.01 | 41 | 1017.6 |
| 20260506211534 | 76 | 280 | 15.0 | 31.0 | 0.01 | 0.01 | 0.01 | 42 | 1017.6 |
| 20260506210106 | 75 | 278 | 15.0 | 25.0 | 0.01 | 0.01 | 0.00 | 44 | 1017.7 |
| 20260506203035 | 73 | 286 | 14.0 | 27.0 | 0.00 | 0.00 | 0.00 | 47 | 1018.1 |
| 20260506200028 | 73 | 304 | 13.0 | 25.0 | 0.00 | 0.00 | 0.00 | 48 | 1018.2 |
| 20260506193034 | 72 | 317 | 10.0 | 22.0 | 0.00 | 0.00 | 0.00 | 50 | 1018.8 |